Volver al catálogo

WESTFORD NEEDLES

ActivoPO
NORAD 21660·DEBRIS·🇺🇸 United States

Lanzado May 9, 1963 desde Vandenberg Space Force Base

Loading…

Próximos Pases (próximas 24 horas)

TLE

ObsoletoSource: Space-Track

Época: Aug 22, 2026, 00:36 UTC

1 21660U 63014FG  26234.02531104 -.00000015  00000-0 -22211-2 0  9990
2 21660  86.7466 252.8431 1390589 294.9360  72.8120  8.77259631 71474

Sigue WESTFORD NEEDLES en tiempo real con AllMySat

Download on the App Store